| time (UTC) | temp C | wind direction | speed KPH | gust KPH | rain 1hr cm | rain 24hr cm | rain mn cm | humidity % | barometer mb |
| 20260503020640 | 16 | 179 | 0.0 | 1.6 | 0.00 | 0.00 | 0.00 | 81 | 1014.3 |
| 20260503020137 | 17 | 153 | 0.0 | 0.0 | 0.00 | 0.00 | 0.00 | 80 | 1014.3 |
| 20260503015634 | 17 | 144 | 0.0 | 3.2 | 0.00 | 0.00 | 0.00 | 80 | 1014.4 |
| 20260503015131 | 17 | 126 | 0.0 | 1.6 | 0.00 | 0.00 | 0.00 | 79 | 1014.5 |
| 20260503014626 | 18 | 249 | 3.2 | 4.8 | 0.00 | 0.00 | 0.00 | 77 | 1014.1 |
| 20260503014125 | 18 | 179 | 3.2 | 3.2 | 0.00 | 0.00 | 0.00 | 75 | 1014.4 |
| 20260503013621 | 19 | 217 | 0.0 | 1.6 | 0.00 | 0.00 | 0.00 | 74 | 1014.2 |
| 20260503013119 | 19 | 168 | 0.0 | 3.2 | 0.00 | 0.00 | 0.00 | 73 | 1014.2 |
| 20260503012616 | 19 | 157 | 0.0 | 3.2 | 0.00 | 0.00 | 0.00 | 73 | 1014.2 |
| 20260503012113 | 19 | 83 | 0.0 | 6.4 | 0.00 | 0.00 | 0.00 | 74 | 1014.4 |
| 20260503011609 | 19 | 257 | 3.2 | 6.4 | 0.00 | 0.00 | 0.00 | 73 | 1014.3 |
| 20260503011107 | 19 | 247 | 4.8 | 6.4 | 0.00 | 0.00 | 0.00 | 72 | 1014.3 |
| 20260503010603 | 20 | 252 | 6.4 | 6.4 | 0.00 | 0.00 | 0.00 | 72 | 1014.4 |
| 20260503010101 | 20 | 218 | 3.2 | 3.2 | 0.00 | 0.00 | 0.00 | 71 | 1014.4 |
| 20260503005557 | 20 | 214 | 3.2 | 4.8 | 0.00 | 0.00 | 0.00 | 71 | 1014.3 |
| 20260503005055 | 20 | 242 | 0.0 | 3.2 | 0.00 | 0.00 | 0.00 | 70 | 1014.3 |
| 20260503004550 | 20 | 173 | 0.0 | 3.2 | 0.00 | 0.00 | 0.00 | 69 | 1014.4 |
| 20260503004049 | 21 | 38 | 1.6 | 6.4 | 0.00 | 0.00 | 0.00 | 69 | 1014.4 |
| 20260503003545 | 21 | 175 | 0.0 | 4.8 | 0.00 | 0.00 | 0.00 | 68 | 1014.3 |
| 20260503003043 | 21 | 170 | 0.0 | 4.8 | 0.00 | 0.00 | 0.00 | 67 | 1014.3 |
| 20260503002539 | 21 | 39 | 0.0 | 3.2 | 0.00 | 0.00 | 0.00 | 68 | 1014.3 |
| 20260503002036 | 21 | 197 | 0.0 | 3.2 | 0.00 | 0.00 | 0.00 | 68 | 1014.4 |
| 20260503001532 | 21 | 318 | 6.4 | 9.7 | 0.00 | 0.00 | 0.00 | 68 | 1014.5 |
| 20260503001031 | 20 | 248 | 4.8 | 9.7 | 0.00 | 0.00 | 0.00 | 69 | 1014.3 |
| 20260503000528 | 21 | 183 | 1.6 | 3.2 | 0.00 | 0.00 | 0.00 | 67 | 1014.4 |
| 20260503000024 | 21 | 237 | 4.8 | 6.4 | 0.00 | 0.00 | 0.00 | 67 | 1014.4 |
| 20260502235521 | 21 | 249 | 3.2 | 11.3 | 0.00 | 0.00 | 0.00 | 67 | 1014.7 |
| 20260502235019 | 21 | 220 | 3.2 | 4.8 | 0.00 | 0.00 | 0.00 | 66 | 1014.5 |
| 20260502234515 | 21 | 216 | 3.2 | 4.8 | 0.00 | 0.00 | 0.00 | 65 | 1014.6 |
| 20260502234012 | 22 | 42 | 1.6 | 6.4 | 0.00 | 0.00 | 0.00 | 65 | 1014.8 |
| 20260502233507 | 22 | 288 | 3.2 | 4.8 | 0.00 | 0.00 | 0.00 | 65 | 1014.7 |
| 20260502233004 | 22 | 42 | 1.6 | 3.2 | 0.00 | 0.00 | 0.00 | 65 | 1014.7 |
| 20260502232500 | 22 | 166 | 0.0 | 4.8 | 0.00 | 0.00 | 0.00 | 65 | 1014.6 |
| 20260502231957 | 21 | 349 | 1.6 | 3.2 | 0.00 | 0.00 | 0.00 | 66 | 1015.0 |
| 20260502231454 | 21 | 273 | 3.2 | 11.3 | 0.00 | 0.00 | 0.00 | 67 | 1015.1 |
| 20260502230952 | 21 | 193 | 4.8 | 6.4 | 0.00 | 0.00 | 0.00 | 68 | 1014.9 |
| 20260502230450 | 21 | 277 | 4.8 | 6.4 | 0.00 | 0.00 | 0.00 | 68 | 1015.0 |
| 20260502225948 | 21 | 182 | 3.2 | 6.4 | 0.00 | 0.00 | 0.00 | 68 | 1015.0 |
| 20260502225444 | 21 | 250 | 1.6 | 9.7 | 0.00 | 0.00 | 0.00 | 66 | 1015.1 |
| 20260502224941 | 21 | 218 | 1.6 | 4.8 | 0.00 | 0.00 | 0.00 | 67 | 1015.3 |
| 20260502224437 | 21 | 247 | 4.8 | 9.7 | 0.00 | 0.00 | 0.00 | 66 | 1015.2 |
| 20260502223934 | 21 | 196 | 1.6 | 12.9 | 0.00 | 0.00 | 0.00 | 67 | 1015.5 |
| 20260502223432 | 21 | 211 | 3.2 | 3.2 | 0.00 | 0.00 | 0.00 | 67 | 1015.6 |
| 20260502222930 | 21 | 264 | 1.6 | 4.8 | 0.00 | 0.00 | 0.00 | 66 | 1015.8 |
| 20260502222427 | 22 | 98 | 0.0 | 4.8 | 0.00 | 0.00 | 0.00 | 66 | 1015.9 |
| 20260502221922 | 21 | 205 | 1.6 | 4.8 | 0.00 | 0.00 | 0.00 | 67 | 1015.9 |
| 20260502221419 | 21 | 112 | 1.6 | 9.7 | 0.00 | 0.00 | 0.00 | 67 | 1016.0 |
| 20260502220916 | 21 | 232 | 4.8 | 9.7 | 0.00 | 0.00 | 0.00 | 66 | 1016.2 |
| 20260502220412 | 21 | 174 | 1.6 | 3.2 | 0.00 | 0.00 | 0.00 | 67 | 1016.2 |
| 20260502215909 | 21 | 328 | 9.7 | 12.9 | 0.00 | 0.00 | 0.00 | 67 | 1016.4 |
| 20260502215406 | 21 | 225 | 6.4 | 11.3 | 0.00 | 0.00 | 0.00 | 67 | 1016.1 |
| 20260502214903 | 21 | 340 | 0.0 | 9.7 | 0.00 | 0.00 | 0.00 | 68 | 1016.5 |
| 20260502214359 | 21 | 254 | 3.2 | 16.1 | 0.00 | 0.00 | 0.00 | 68 | 1016.2 |
| 20260502213857 | 22 | 188 | 3.2 | 9.7 | 0.00 | 0.00 | 0.00 | 67 | 1016.3 |
| 20260502213354 | 22 | 5 | 3.2 | 4.8 | 0.00 | 0.00 | 0.00 | 65 | 1016.6 |
| 20260502212853 | 22 | 224 | 3.2 | 4.8 | 0.00 | 0.00 | 0.00 | 67 | 1016.4 |
| 20260502212351 | 22 | 272 | 3.2 | 4.8 | 0.00 | 0.00 | 0.00 | 66 | 1016.6 |
| 20260502211848 | 22 | 55 | 1.6 | 4.8 | 0.00 | 0.00 | 0.00 | 66 | 1016.6 |
| 20260502211343 | 22 | 282 | 4.8 | 6.4 | 0.00 | 0.00 | 0.00 | 66 | 1016.7 |
| 20260502210841 | 22 | 47 | 3.2 | 4.8 | 0.00 | 0.00 | 0.00 | 67 | 1016.8 |
| 20260502210338 | 22 | 142 | 1.6 | 12.9 | 0.00 | 0.00 | 0.00 | 66 | 1016.8 |
| 20260502205835 | 22 | 317 | 3.2 | 6.4 | 0.00 | 0.00 | 0.00 | 66 | 1016.7 |
| 20260502205331 | 22 | 201 | 3.2 | 6.4 | 0.00 | 0.00 | 0.00 | 66 | 1016.9 |
| 20260502204828 | 22 | 222 | 8.0 | 9.7 | 0.00 | 0.00 | 0.00 | 66 | 1016.9 |
| 20260502204325 | 22 | 53 | 1.6 | 4.8 | 0.00 | 0.00 | 0.00 | 66 | 1016.9 |
| 20260502203823 | 22 | 322 | 8.0 | 11.3 | 0.00 | 0.00 | 0.00 | 67 | 1017.0 |
| 20260502203320 | 22 | 79 | 3.2 | 11.3 | 0.00 | 0.00 | 0.00 | 67 | 1016.9 |
| 20260502202815 | 22 | 26 | 4.8 | 6.4 | 0.00 | 0.00 | 0.00 | 66 | 1016.8 |
| 20260502202313 | 22 | 126 | 1.6 | 3.2 | 0.00 | 0.00 | 0.00 | 67 | 1016.9 |
| 20260502201810 | 22 | 203 | 8.0 | 11.3 | 0.00 | 0.00 | 0.00 | 68 | 1016.8 |
| 20260502201306 | 22 | 238 | 3.2 | 6.4 | 0.00 | 0.00 | 0.00 | 67 | 1017.1 |
| 20260502200803 | 22 | 156 | 1.6 | 9.7 | 0.00 | 0.00 | 0.00 | 67 | 1016.8 |
| 20260502200258 | 22 | 93 | 1.6 | 12.9 | 0.00 | 0.00 | 0.00 | 67 | 1017.0 |
| 20260502195757 | 22 | 207 | 1.6 | 6.4 | 0.00 | 0.00 | 0.00 | 65 | 1017.3 |
| 20260502195253 | 22 | 131 | 3.2 | 9.7 | 0.00 | 0.00 | 0.00 | 65 | 1017.0 |
| 20260502194750 | 23 | 27 | 1.6 | 4.8 | 0.00 | 0.00 | 0.00 | 64 | 1017.0 |
| 20260502194247 | 22 | 81 | 1.6 | 9.7 | 0.00 | 0.00 | 0.00 | 65 | 1017.2 |
| 20260502193743 | 23 | 118 | 1.6 | 3.2 | 0.00 | 0.00 | 0.00 | 64 | 1017.2 |
| 20260502193240 | 23 | 187 | 1.6 | 6.4 | 0.00 | 0.00 | 0.00 | 63 | 1017.2 |
| 20260502192740 | 22 | 276 | 6.4 | 12.9 | 0.00 | 0.00 | 0.00 | 66 | 1017.2 |
| 20260502192238 | 23 | 261 | 6.4 | 11.3 | 0.00 | 0.00 | 0.00 | 64 | 1017.2 |
| 20260502191735 | 23 | 265 | 4.8 | 6.4 | 0.00 | 0.00 | 0.00 | 64 | 1017.4 |
| 20260502191233 | 23 | 68 | 1.6 | 3.2 | 0.00 | 0.00 | 0.00 | 64 | 1017.5 |
| 20260502190730 | 22 | 182 | 0.0 | 3.2 | 0.00 | 0.00 | 0.00 | 65 | 1017.6 |
| 20260502190227 | 22 | 255 | 6.4 | 9.7 | 0.00 | 0.00 | 0.00 | 67 | 1017.6 |
| 20260502185727 | 22 | 253 | 3.2 | 9.7 | 0.00 | 0.00 | 0.00 | 65 | 1017.7 |
| 20260502185224 | 22 | 308 | 1.6 | 4.8 | 0.00 | 0.00 | 0.00 | 67 | 1017.8 |
| 20260502184720 | 22 | 343 | 1.6 | 3.2 | 0.00 | 0.00 | 0.00 | 68 | 1018.0 |
| 20260502184216 | 21 | 256 | 4.8 | 4.8 | 0.00 | 0.00 | 0.00 | 68 | 1017.9 |
| 20260502183713 | 20 | 124 | 1.6 | 3.2 | 0.00 | 0.00 | 0.00 | 72 | 1017.8 |
| 20260502183208 | 20 | 95 | 1.6 | 3.2 | 0.00 | 0.00 | 0.00 | 72 | 1018.0 |
| 20260502182704 | 20 | 103 | 1.6 | 4.8 | 0.00 | 0.00 | 0.00 | 71 | 1018.0 |
| 20260502182159 | 21 | 78 | 1.6 | 4.8 | 0.00 | 0.00 | 0.00 | 71 | 1018.1 |
| 20260502181657 | 20 | 322 | 4.8 | 4.8 | 0.00 | 0.00 | 0.00 | 73 | 1018.1 |
| 20260502181156 | 20 | 232 | 4.8 | 6.4 | 0.00 | 0.00 | 0.00 | 73 | 1018.1 |
| 20260502180653 | 20 | 103 | 1.6 | 1.6 | 0.00 | 0.00 | 0.00 | 72 | 1018.0 |
| 20260502180150 | 20 | 57 | 1.6 | 3.2 | 0.00 | 0.00 | 0.00 | 75 | 1018.1 |
| 20260502170114 | 16 | 244 | 4.8 | 6.4 | 0.00 | 0.00 | 0.00 | 84 | 1018.8 |
| 20260502164101 | 17 | 227 | 1.6 | 4.8 | 0.00 | 0.00 | 0.00 | 83 | 1019.0 |
| 20260502163556 | 17 | 254 | 1.6 | 3.2 | 0.00 | 0.00 | 0.00 | 83 | 1018.8 |
| 20260502163053 | 17 | 146 | 1.6 | 3.2 | 0.00 | 0.00 | 0.00 | 83 | 1018.7 |
| 20260502162550 | 16 | 99 | 1.6 | 3.2 | 0.00 | 0.00 | 0.00 | 86 | 1018.5 |
| 20260502162048 | 15 | 153 | 0.0 | 3.2 | 0.00 | 0.00 | 0.00 | 89 | 1018.8 |
| 20260502161544 | 15 | 78 | 1.6 | 6.4 | 0.00 | 0.00 | 0.00 | 89 | 1018.9 |
| 20260502161042 | 15 | 105 | 3.2 | 9.7 | 0.00 | 0.00 | 0.00 | 90 | 1018.5 |
| 20260502160540 | 15 | 133 | 1.6 | 4.8 | 0.00 | 0.00 | 0.00 | 89 | 1018.5 |
| 20260502151947 | 12 | 171 | 0.0 | 1.6 | 0.00 | 0.00 | 0.00 | 99 | 1018.1 |
| 20260502151444 | 12 | 122 | 0.0 | 3.2 | 0.00 | 0.00 | 0.00 | 99 | 1018.2 |
| 20260502150941 | 12 | 195 | 0.0 | 1.6 | 0.00 | 0.00 | 0.00 | 99 | 1018.2 |
| 20260502150438 | 12 | 71 | 1.6 | 6.4 | 0.00 | 0.00 | 0.00 | 99 | 1018.1 |
| 20260502130323 | 11 | 153 | 0.0 | 0.0 | 0.00 | 0.00 | 0.00 | 99 | 1017.8 |
| 20260502123809 | 11 | 136 | 0.0 | 0.0 | 0.00 | 0.00 | 0.00 | 99 | 1017.6 |
| 20260502123306 | 11 | 131 | 0.0 | 0.0 | 0.00 | 0.00 | 0.00 | 99 | 1017.6 |
| 20260502122803 | 11 | 132 | 0.0 | 0.0 | 0.00 | 0.00 | 0.00 | 99 | 1017.6 |
| 20260502122259 | 11 | 138 | 0.0 | 0.0 | 0.00 | 0.00 | 0.00 | 99 | 1017.6 |
| 20260502121757 | 11 | 137 | 0.0 | 0.0 | 0.00 | 0.00 | 0.00 | 99 | 1017.4 |
| 20260502121254 | 11 | 157 | 0.0 | 0.0 | 0.00 | 0.00 | 0.00 | 99 | 1017.3 |
| 20260502120751 | 11 | 140 | 0.0 | 0.0 | 0.00 | 0.00 | 0.00 | 99 | 1017.2 |
| 20260502120248 | 11 | 138 | 0.0 | 0.0 | 0.00 | 0.00 | 0.00 | 99 | 1017.3 |
| 20260502115746 | 11 | 133 | 0.0 | 0.0 | 0.00 | 0.00 | 0.00 | 99 | 1017.4 |
| 20260502115242 | 11 | 132 | 0.0 | 0.0 | 0.00 | 0.00 | 0.00 | 99 | 1017.4 |
| 20260502114738 | 11 | 150 | 0.0 | 0.0 | 0.00 | 0.00 | 0.00 | 99 | 1017.5 |
| 20260502114235 | 11 | 135 | 0.0 | 0.0 | 0.00 | 0.00 | 0.00 | 99 | 1017.3 |
| 20260502113732 | 11 | 158 | 0.0 | 0.0 | 0.00 | 0.00 | 0.00 | 99 | 1017.4 |
| 20260502113230 | 11 | 142 | 0.0 | 0.0 | 0.00 | 0.00 | 0.00 | 99 | 1017.3 |
| 20260502112728 | 11 | 153 | 0.0 | 0.0 | 0.00 | 0.00 | 0.00 | 99 | 1017.2 |
| 20260502112226 | 11 | 154 | 0.0 | 0.0 | 0.00 | 0.00 | 0.00 | 99 | 1017.1 |
| 20260502111723 | 11 | 145 | 0.0 | 0.0 | 0.00 | 0.00 | 0.00 | 99 | 1017.2 |
| 20260502111220 | 11 | 147 | 0.0 | 0.0 | 0.00 | 0.00 | 0.00 | 99 | 1017.2 |
| 20260502110717 | 11 | 162 | 0.0 | 0.0 | 0.00 | 0.00 | 0.00 | 98 | 1017.1 |
| 20260502110215 | 11 | 154 | 0.0 | 1.6 | 0.00 | 0.00 | 0.00 | 98 | 1017.0 |
| 20260502105713 | 11 | 251 | 1.6 | 3.2 | 0.00 | 0.00 | 0.00 | 98 | 1016.9 |
| 20260502105209 | 10 | 205 | 0.0 | 1.6 | 0.00 | 0.00 | 0.00 | 98 | 1017.2 |
| 20260502104707 | 11 | 163 | 0.0 | 0.0 | 0.00 | 0.00 | 0.00 | 98 | 1016.8 |
| 20260502104204 | 11 | 169 | 0.0 | 0.0 | 0.00 | 0.00 | 0.00 | 98 | 1016.9 |
| 20260502103701 | 10 | 184 | 0.0 | 0.0 | 0.00 | 0.00 | 0.00 | 98 | 1016.9 |
| 20260502103159 | 11 | 192 | 0.0 | 0.0 | 0.00 | 0.00 | 0.00 | 98 | 1017.0 |
| 20260502102655 | 10 | 181 | 0.0 | 0.0 | 0.00 | 0.00 | 0.00 | 97 | 1017.0 |
| 20260502102152 | 11 | 158 | 0.0 | 0.0 | 0.00 | 0.00 | 0.00 | 97 | 1016.7 |
| 20260502101650 | 11 | 168 | 0.0 | 0.0 | 0.00 | 0.00 | 0.00 | 97 | 1016.8 |
| 20260502101148 | 11 | 207 | 0.0 | 0.0 | 0.00 | 0.00 | 0.00 | 97 | 1016.9 |
| 20260502100646 | 11 | 188 | 0.0 | 0.0 | 0.00 | 0.00 | 0.00 | 97 | 1016.9 |
| 20260502100145 | 11 | 160 | 0.0 | 0.0 | 0.00 | 0.00 | 0.00 | 97 | 1017.2 |
| 20260502091119 | 12 | 173 | 0.0 | 1.6 | 0.00 | 0.00 | 0.00 | 97 | 1016.8 |
| 20260502090615 | 12 | 187 | 0.0 | 4.8 | 0.00 | 0.00 | 0.00 | 97 | 1017.0 |
| 20260502090113 | 12 | 140 | 0.0 | 0.0 | 0.00 | 0.00 | 0.00 | 97 | 1016.8 |
| 20260502071510 | 12 | 154 | 0.0 | 0.0 | 0.00 | 0.00 | 0.00 | 96 | 1017.5 |
| 20260502071008 | 12 | 154 | 0.0 | 0.0 | 0.00 | 0.00 | 0.00 | 96 | 1017.5 |
| 20260502070506 | 12 | 154 | 0.0 | 0.0 | 0.00 | 0.00 | 0.00 | 96 | 1017.4 |
| 20260502070004 | 12 | 154 | 0.0 | 0.0 | 0.00 | 0.00 | 0.00 | 96 | 1017.2 |
| 20260502065502 | 12 | 158 | 0.0 | 0.0 | 0.00 | 0.00 | 0.00 | 96 | 1017.3 |
| 20260502065000 | 12 | 133 | 0.0 | 0.0 | 0.00 | 0.00 | 0.00 | 96 | 1017.4 |
| 20260502064458 | 12 | 146 | 0.0 | 0.0 | 0.00 | 0.00 | 0.00 | 96 | 1017.3 |
| 20260502063954 | 12 | 121 | 0.0 | 0.0 | 0.00 | 0.00 | 0.00 | 96 | 1017.3 |
| 20260502063452 | 12 | 138 | 0.0 | 0.0 | 0.00 | 0.00 | 0.00 | 96 | 1017.4 |
| 20260502062950 | 12 | 131 | 0.0 | 0.0 | 0.00 | 0.00 | 0.00 | 96 | 1017.2 |
| 20260502062447 | 12 | 128 | 0.0 | 0.0 | 0.00 | 0.00 | 0.00 | 96 | 1017.2 |
| 20260502061945 | 12 | 131 | 0.0 | 0.0 | 0.00 | 0.00 | 0.00 | 97 | 1017.3 |
| 20260502061443 | 11 | 141 | 0.0 | 0.0 | 0.00 | 0.00 | 0.00 | 97 | 1017.1 |
| 20260502060938 | 11 | 141 | 0.0 | 0.0 | 0.00 | 0.00 | 0.00 | 96 | 1017.1 |
| 20260502060434 | 11 | 141 | 0.0 | 0.0 | 0.00 | 0.00 | 0.00 | 97 | 1017.3 |
| 20260502055931 | 12 | 141 | 0.0 | 0.0 | 0.00 | 0.00 | 0.00 | 96 | 1017.3 |
| 20260502055429 | 12 | 141 | 0.0 | 0.0 | 0.00 | 0.00 | 0.00 | 96 | 1017.2 |
| 20260502054923 | 12 | 141 | 0.0 | 0.0 | 0.00 | 0.00 | 0.00 | 96 | 1017.4 |
| 20260502054420 | 12 | 141 | 0.0 | 0.0 | 0.00 | 0.00 | 0.00 | 96 | 1017.4 |
| 20260502053918 | 12 | 162 | 0.0 | 0.0 | 0.00 | 0.00 | 0.00 | 96 | 1017.4 |
| 20260502053415 | 12 | 162 | 0.0 | 0.0 | 0.00 | 0.00 | 0.00 | 96 | 1017.4 |
| 20260502052912 | 12 | 165 | 0.0 | 0.0 | 0.00 | 0.00 | 0.00 | 96 | 1017.3 |
| 20260502052411 | 12 | 165 | 0.0 | 0.0 | 0.00 | 0.00 | 0.00 | 96 | 1017.4 |
| 20260502051908 | 12 | 157 | 0.0 | 0.0 | 0.00 | 0.00 | 0.00 | 96 | 1017.4 |
| 20260502051406 | 12 | 170 | 0.0 | 0.0 | 0.00 | 0.00 | 0.00 | 96 | 1017.7 |
| 20260502050903 | 12 | 198 | 0.0 | 0.0 | 0.00 | 0.00 | 0.00 | 96 | 1017.4 |
| 20260502050359 | 12 | 171 | 0.0 | 0.0 | 0.00 | 0.00 | 0.00 | 96 | 1017.6 |
| 20260502045856 | 12 | 169 | 0.0 | 0.0 | 0.00 | 0.00 | 0.00 | 96 | 1017.5 |
| 20260502045353 | 12 | 149 | 0.0 | 0.0 | 0.00 | 0.00 | 0.00 | 96 | 1017.6 |
| 20260502044850 | 12 | 166 | 0.0 | 0.0 | 0.00 | 0.00 | 0.00 | 96 | 1017.4 |
| 20260502044346 | 12 | 166 | 0.0 | 0.0 | 0.00 | 0.00 | 0.00 | 95 | 1017.4 |
| 20260502043843 | 12 | 172 | 0.0 | 0.0 | 0.00 | 0.00 | 0.00 | 95 | 1017.6 |
| 20260502043341 | 12 | 173 | 0.0 | 0.0 | 0.00 | 0.00 | 0.00 | 95 | 1017.5 |
| 20260502042840 | 12 | 181 | 0.0 | 0.0 | 0.00 | 0.00 | 0.00 | 95 | 1017.4 |
| 20260502042338 | 12 | 167 | 0.0 | 0.0 | 0.00 | 0.00 | 0.00 | 95 | 1017.5 |
| 20260502041835 | 12 | 170 | 0.0 | 0.0 | 0.00 | 0.00 | 0.00 | 95 | 1017.4 |
| 20260502041332 | 12 | 164 | 0.0 | 0.0 | 0.00 | 0.00 | 0.00 | 94 | 1017.1 |
| 20260502040829 | 12 | 171 | 0.0 | 0.0 | 0.00 | 0.00 | 0.00 | 94 | 1017.4 |
| 20260502040326 | 12 | 183 | 0.0 | 0.0 | 0.00 | 0.00 | 0.00 | 94 | 1017.1 |
| 20260502035822 | 12 | 163 | 0.0 | 0.0 | 0.00 | 0.00 | 0.00 | 93 | 1017.3 |
| 20260502035319 | 12 | 147 | 0.0 | 0.0 | 0.00 | 0.00 | 0.00 | 93 | 1017.2 |
| 20260502034816 | 12 | 173 | 0.0 | 1.6 | 0.00 | 0.00 | 0.00 | 93 | 1017.2 |
| 20260502034315 | 13 | 173 | 0.0 | 0.0 | 0.00 | 0.00 | 0.00 | 93 | 1017.1 |
| 20260502033813 | 13 | 106 | 0.0 | 0.0 | 0.00 | 0.00 | 0.00 | 92 | 1016.9 |
| 20260502033310 | 13 | 162 | 0.0 | 0.0 | 0.00 | 0.00 | 0.00 | 92 | 1016.9 |
| 20260502032807 | 13 | 144 | 0.0 | 1.6 | 0.00 | 0.00 | 0.00 | 92 | 1016.8 |
| 20260502032305 | 13 | 185 | 0.0 | 1.6 | 0.00 | 0.00 | 0.00 | 91 | 1016.8 |
| 20260502031800 | 13 | 159 | 0.0 | 4.8 | 0.00 | 0.00 | 0.00 | 91 | 1016.6 |
| 20260502031259 | 13 | 171 | 0.0 | 3.2 | 0.00 | 0.00 | 0.00 | 91 | 1016.6 |
| 20260502030757 | 13 | 78 | 0.0 | 4.8 | 0.00 | 0.00 | 0.00 | 90 | 1016.5 |
| 20260502030254 | 13 | 201 | 1.6 | 3.2 | 0.00 | 0.00 | 0.00 | 90 | 1016.6 |
| 20260502025752 | 14 | 136 | 0.0 | 1.6 | 0.00 | 0.00 | 0.00 | 89 | 1016.5 |
| 20260502025250 | 14 | 171 | 0.0 | 1.6 | 0.00 | 0.00 | 0.00 | 88 | 1016.5 |
| 20260502024747 | 15 | 175 | 0.0 | 1.6 | 0.00 | 0.00 | 0.00 | 87 | 1016.5 |
| 20260502024245 | 15 | 190 | 0.0 | 4.8 | 0.00 | 0.00 | 0.00 | 87 | 1016.5 |
| 20260502023743 | 15 | 151 | 0.0 | 3.2 | 0.00 | 0.00 | 0.00 | 86 | 1016.4 |
| 20260502023240 | 15 | 194 | 0.0 | 3.2 | 0.00 | 0.00 | 0.00 | 85 | 1016.5 |
| 20260502022738 | 15 | 216 | 1.6 | 3.2 | 0.00 | 0.00 | 0.00 | 84 | 1016.5 |
| 20260502022233 | 16 | 297 | 0.0 | 3.2 | 0.00 | 0.00 | 0.00 | 83 | 1016.4 |
| 20260502021731 | 16 | 101 | 1.6 | 4.8 | 0.00 | 0.00 | 0.00 | 82 | 1016.3 |
| 20260502021228 | 16 | 170 | 0.0 | 1.6 | 0.00 | 0.00 | 0.00 | 81 | 1016.3 |